Regional Weather Roundup
Issued by NWS

Home | Current Version | Previous Version | Graphics & Text | Print | Product List | Glossary On
Versions: 1 2 3 4 5 6 7 8 9 10 11 12 13 14 15 16 17 18 19 20 21 22 23 24 25 26 27 28 29 30 31 32 33 34 35 36 37 38 39 40 41 42 43 44 45 46 47 48 49 50
768
ASUS43 KMKX 110400
RWRWI

WISCONSIN REGIONAL WEATHER ROUNDUP
NATIONAL WEATHER SERVICE MILWAUKEE/SULLIVAN WI
1000 PM CST WED FEB 10 2016

NOTE: "FAIR" INDICATES FEW OR NO CLOUDS BELOW 12,000 FEET WITH NO
SIGNIFICANT WEATHER AND/OR OBSTRUCTIONS TO VISIBILITY.

WIZ001-002-006>008-014>016-023>028-110500-
NORTHWEST WISCONSIN

CITY           SKY/WX    TMP DP  RH WIND       PRES   REMARKS
SUPERIOR ARPT  PTCLDY     4  -8  57 N9        30.25S WCI -10
ASHLAND        MOCLDY    -3  -7  82 W6        30.21S WCI -15
HAYWARD        CLEAR     -7 -12  79 CALM      30.18R
SIREN          CLEAR      3  -7  63 CALM      30.22S
CUMBERLAND     CLOUDY     3  -6  66 NW5       30.18S WCI  -6
RICE LAKE      CLOUDY     5  -4  66 CALM      30.21S
CHETEK         CLOUDY     3  -4  73 CALM      30.20S
LADYSMITH      CLOUDY    -3  -8  81 CALM      30.18S
EAU CLAIRE     NOT AVBL
MENOMONIE      CLOUDY     8  -3  61 NW3       30.22R
NEW RICHMOND   CLOUDY     7  -3  64 NW3       30.23R
OSCEOLA        CLOUDY     8  -2  65 CALM      30.26S
$$

WIZ003>005-009-010-017-018-110500-
NORTH CENTRAL WISCONSIN

CITY           SKY/WX    TMP DP  RH WIND       PRES   REMARKS
MANITOWISH WTR CLOUDY     4  -1  79 NW6       30.09R WCI  -6
ARBOR VITAE    CLOUDY     7   1  75 NW6       30.08S WCI  -3
WOODRUFF       CLOUDY     7   1  75 NW6       30.08S WCI  -3
RHINELANDER    CLOUDY     6  -3  66 NW8       30.08S WCI  -7
EAGLE RIVER    CLOUDY     6  -2  69 NW5       30.07R WCI  -3
LAND O LAKES   FLURRIES   6   1  80 W5        30.06S WCI  -3
PHILLIPS       CLOUDY   -10 -14  83 CALM      30.13R
TOMAHAWK       CLOUDY     6  -2  69 NW6       30.12R WCI  -5
MEDFORD        CLEAR      0  -5  77 N5        30.12R WCI -10
MERRILL        CLOUDY     5  -3  67 N7        30.13R WCI  -7
$$

WIZ029-030-035-036-043>047-110500-
CENTRAL WISCONSIN

CITY           SKY/WX    TMP DP  RH WIND       PRES   REMARKS
WAUSAU         PTCLDY     6  -4  63 N8        30.13R WCI  -7
MOSINEE        CLEAR      5  -4  66 N8        30.14R WCI  -8
MARSHFIELD     CLOUDY     3  -6  66 N9        30.13R WCI -12
STEVENS POINT  CLOUDY     3  -6  66 N5        30.14S WCI  -6
WAUPACA        CLEAR      7  -4  58 NW3       30.16S
WAUTOMA        NOT AVBL
WISC RAPIDS    CLOUDY     4  -6  63 NW5       30.17R WCI  -5
CAMP DOUGLAS   NOT AVBL
$$

WIZ011>013-019>022-031-037>040-048>050-110500-
NORTHEAST WISCONSIN

CITY           SKY/WX    TMP DP  RH WIND       PRES   REMARKS
ANTIGO         CLOUDY     3  -5  70 N7        30.09R WCI -10
SHAWANO        MOCLDY     7  -4  59 NW3       30.16R
OCONTO         CLEAR      5  -6  62 NW5       30.15R WCI  -4
STURGEON BAY   CLEAR      7  -4  61 NW12      30.14R WCI  -9
GREEN BAY      CLEAR      5  -6  60 N8        30.16R WCI  -8
MANITOWOC      NOT AVBL
APPLETON       PTCLDY     7  -8  51 NW6       30.13R WCI  -3
CLINTONVILLE   CLEAR      9  -6  52 N6        30.16R WCI  -1
OSHKOSH        CLEAR      5  -6  60 W8        30.15R WCI  -8
$$

WIZ032>034-041-042-053>061-110500-
SOUTHWEST WISCONSIN

CITY           SKY/WX    TMP DP  RH WIND       PRES   REMARKS
LA CROSSE      CLOUDY     6  -3  66 N3        30.24R
SPARTA         CLOUDY     0  -4  80 CALM      30.21R
VIROQUA        CLOUDY     4  -4  69 NW3       30.15R
BOSCOBEL       CLOUDY     8  -2  63 CALM      30.23R
PRAIRIE DU CHI CLOUDY    12  -2  55 NW5       30.22R WCI   4
PLATTEVILLE    CLOUDY    10   0  64 N5        30.17R WCI   2
$$

WIZ056-057-062-063-064-067-068-110500-
SOUTH CENTRAL WISCONSIN

CITY           SKY/WX    TMP DP  RH WIND       PRES   REMARKS
REEDSBURG      CLOUDY     5  -4  66 CALM      30.18R
BARABOO/DELLS  CLOUDY     6  -4  64 NW3       30.16R
LONE ROCK      NOT AVBL
MINERAL POINT  CLOUDY     9  -2  61 CALM      30.15R
MADISON        PTCLDY     7  -3  64 NW5       30.16R WCI  -2
MIDDLETON      CLEAR      7  -1  70 CALM      30.17R
WATERTOWN      CLEAR      8  -1  66 NW5       30.14S WCI   0
MONROE         CLOUDY    10   1  67 NW5       30.14R WCI   2
JANESVILLE     CLEAR     10   3  72 CALM      30.17R
$$

WIZ051-052-058>065-066-070>072-110500-
SOUTHEAST WISCONSIN

CITY           SKY/WX    TMP DP  RH WIND       PRES   REMARKS
MILWAUKEE      PTCLDY    10  -2  58 NW8       30.15R WCI  -2
WAUKESHA       CLEAR      5  -2  72 W7        30.14R WCI  -7
MILWAUKEE/TIMM CLEAR      9  -4  56 W6        30.15R WCI  -1
RACINE         CLEAR      8  -3  61 W5        30.16R WCI   0
BURLINGTON     CLEAR      1  -4  81 W5        30.15R WCI  -9
KENOSHA        CLEAR      5  -1  76 W5        30.15R WCI  -4
FOND DU LAC    CLEAR      6  -4  63 NW9       30.15R WCI  -8
SHEBOYGAN      CLEAR      3  -6  66 NW3       30.14R
WEST BEND      CLEAR      7  -2  66 CALM      30.12R
JUNEAU         CLEAR      6  -3  66 W5        30.15R WCI  -3
$$

LSZ147-162-110500-
LAKE SUPERIOR

STATION/POSITION TIME  TEMP    WIND        PRES    WAVE
                       AIR SEA DIR/SP/G            HT/PER
                 (UTC) (F)     (DEG/KT/KT) (MB)    (FT/S)
DEVILS ISLAND    0300    9     330/ 15/ 20 1024.7R
PORT WING        0300   10     350/ 11/ 16 1023.7R
SAXON HARBOR     0300    9                 1022.4R
$$

LMZ867-665-643>646-110500-
LAKE MICHIGAN

STATION/POSITION TIME  TEMP    WIND        PRES    WAVE
                       AIR SEA DIR/SP/G            HT/PER
                 (UTC) (F)     (DEG/KT/KT) (MB)    (FT/S)
CHAMBERS ISLAND  0300    9     300/ 16/ 24 1019.6S
ALGOMA LAKESHORE 0311          340/  4/  6   N/A
KEWAUNEE LAKESHO 0300    8                 1019.2
SHEBOYGAN LAKESH 0300   10     300/  8/  9 1021.9R
PORT WASHINGTON  0340    9     290/  4/  7 1021.7R
MILWAUKEE LAKESH 0310   12     310/  6/  9   N/A
KENOSHA   LAKESH 0300   10     300/  6/  9 1020.7R
$$

TC  - TEMPERATURE IN CELSIUS
VSB - VISIBILITY IN STATUTE MILES
WCI - WIND CHILL INDEX
HX  - HEAT INDEX





USA.gov is the U.S. government's official web portal to all federal, state and local government web resources and services.